Weather History for KLAF - June, 2013

Change the Weather History Date:

Friday, June 21, 2013

  Actual Average Record
Temperature  
Mean Temperature 75 °F 73 °F  
Max Temperature 88 °F 84 °F 101 °F (1988)
Min Temperature 62 °F 62 °F 40 °F (1992)
Degree Days  
Heating Degree Days 0 0  
Month to date heating degree days 18 22  
Since 1 June heating degree days 18 22  
Since 1 July heating degree days 5911 5672  
Cooling Degree Days 10 9  
Month to date cooling degree days 100 134  
Year to date cooling degree days 201 211  
Since 1 June cooling degree days 100 134  
Growing Degree Days 26 (Base 50)    
Moisture  
Dew Point 64 °F    
Average Humidity 67    
Maximum Humidity 87    
Minimum Humidity 46    
Precipitation  
Precipitation 0.91 in 0.13 in 0.91 in (1960)
Month to date precipitation 2.35 2.88  
Year to date precipitation 20.97 16.90  
Sea Level Pressure  
Sea Level Pressure 30.12 in    
Wind  
Wind Speed 6 mph (South)    
Max Wind Speed 30 mph    
Max Gust Speed 44 mph    
Visibility 8 miles    
Events Fog , Rain , Thunderstorm    
T = Trace of Precipitation, MM = Missing Value Source: NWS Daily Summary

Daily Weather History Graph

Daily Weather History Graph

Search for Another Location

Airport or City:

Trip Planner

Search our weather history database for the weather conditions in past years. The results will help you decide how hot, cold, wet, or windy it might be!

Date:

Astronomy

Jun. 21, 2013 Rise Set
Actual Time 6:17 AM EDT 9:21 PM EDT
Civil Twilight 5:44 AM EDT 9:54 PM EDT
Nautical Twilight 5:02 AM EDT 10:36 PM EDT
Astronomical Twilight 4:12 AM EDT 11:26 PM EDT
Moon 7:31 PM EDT (6/21) 4:33 AM EDT (6/21)
Length of Visible Light 16h 10m
Length of Day
15h 03m
Waxing Gibbous, 95% of the Moon is Illuminated
Jun 21
Waxing Gibbous
Jun 23
Full
Jun 30
Last Quarter
Jul 8
New
Jul 15
First Quarter

Hourly Weather History & Observations

Time (EDT) Temp. Heat Index Dew Point Humidity Pressure Visibility Wind Dir Wind Speed Gust Speed Precip Events Conditions
12:54 AM 66.0 °F - 62.1 °F 87% 30.14 in 10.0 mi Calm Calm - N/A   Clear
1:54 AM 64.9 °F - 61.0 °F 87% 30.15 in 10.0 mi ENE 3.5 mph - N/A   Clear
2:54 AM 66.9 °F - 61.0 °F 81% 30.14 in 10.0 mi Calm Calm - N/A   Clear
3:54 AM 66.0 °F - 60.1 °F 81% 30.13 in 10.0 mi ESE 3.5 mph - N/A   Clear
4:54 AM 64.0 °F - 60.1 °F 87% 30.13 in 10.0 mi Calm Calm - N/A   Clear
5:54 AM 64.0 °F - 59.0 °F 84% 30.14 in 10.0 mi Calm Calm - N/A   Clear
6:54 AM 64.9 °F - 59.0 °F 81% 30.14 in 10.0 mi Calm Calm - N/A   Clear
7:54 AM 69.1 °F - 61.0 °F 75% 30.15 in 10.0 mi Variable 3.5 mph - N/A   Clear
8:54 AM 73.9 °F - 63.0 °F 68% 30.15 in 10.0 mi Calm Calm - N/A   Clear
9:54 AM 79.0 °F - 64.9 °F 62% 30.14 in 10.0 mi Variable 6.9 mph - N/A   Clear
10:54 AM 82.0 °F 83.4 °F 64.0 °F 54% 30.14 in 10.0 mi South 11.5 mph - N/A   Clear
11:54 AM 84.0 °F 85.4 °F 64.0 °F 51% 30.15 in 10.0 mi South 9.2 mph - N/A   Clear
12:54 PM 84.9 °F 86.1 °F 64.0 °F 49% 30.13 in 10.0 mi South 9.2 mph 17.3 mph N/A   Partly Cloudy
1:54 PM 87.1 °F 88.9 °F 64.9 °F 48% 30.13 in 10.0 mi South 9.2 mph - N/A   Clear
2:54 PM 87.1 °F 88.9 °F 64.9 °F 48% 30.11 in 10.0 mi Variable 6.9 mph - N/A   Partly Cloudy
3:54 PM 86.0 °F 88.2 °F 66.0 °F 51% 30.10 in 10.0 mi South 5.8 mph - N/A   Partly Cloudy
4:54 PM 87.1 °F 89.9 °F 66.9 °F 51% 30.08 in 10.0 mi South 6.9 mph - N/A   Clear
5:54 PM 84.9 °F 87.6 °F 66.9 °F 55% 30.10 in 10.0 mi SW 4.6 mph - N/A Thunderstorm Mostly Cloudy
6:17 PM 73.4 °F - 64.4 °F 73% 30.14 in 10.0 mi NW 26.5 mph 43.7 mph N/A Thunderstorm Thunderstorm
6:29 PM 69.8 °F - 66.2 °F 88% 30.16 in 1.8 mi WNW 15.0 mph 28.8 mph 0.10 in Rain , Thunderstorm Heavy Thunderstorms and Rain
6:37 PM 66.2 °F - 66.2 °F 100% 30.17 in 0.5 mi WSW 11.5 mph 27.6 mph 0.42 in Fog , Rain , Thunderstorm Heavy Thunderstorms and Rain
6:45 PM 68.0 °F - 66.2 °F 94% 30.16 in 0.5 mi Calm Calm - 0.70 in Fog , Rain , Thunderstorm Heavy Thunderstorms and Rain
6:54 PM 66.9 °F - 66.0 °F 97% 30.14 in 1.5 mi East 11.5 mph - 0.81 in Rain , Thunderstorm Heavy Thunderstorms and Rain
7:02 PM 66.2 °F - 66.2 °F 100% 30.13 in 3.0 mi SSE 4.6 mph - 0.03 in Rain , Thunderstorm Thunderstorms and Rain
7:22 PM 68.0 °F - 66.2 °F 94% 30.11 in 5.0 mi SSE 4.6 mph - 0.04 in Rain , Thunderstorm Light Rain
7:54 PM 68.0 °F - 64.9 °F 90% 30.08 in 10.0 mi ESE 6.9 mph 20.7 mph 0.07 in Rain , Thunderstorm Light Thunderstorms and Rain
8:41 PM 69.8 °F - 66.2 °F 88% 30.01 in 10.0 mi SSE 18.4 mph 26.5 mph 0.03 in Rain Light Rain
8:54 PM 70.0 °F - 66.0 °F 87% 29.97 in 10.0 mi South 15.0 mph 25.3 mph 0.03 in Rain Light Rain
9:54 PM 71.1 °F - 66.0 °F 84% 30.05 in 10.0 mi West 19.6 mph 24.2 mph 0.00 in   Clear
10:54 PM 69.1 °F - 64.0 °F 84% 30.07 in 10.0 mi South 3.5 mph - N/A   Clear
11:54 PM 68.0 °F - 64.9 °F 90% 30.09 in 10.0 mi Calm Calm - N/A   Clear